Newport, AR

6:23 PM CDT on May 21, 2018 (GMT -0500)
Newport

Weather History for KM19 - November, 2012

Change the Weather History Date:

Sunday, November 4, 2012

  Actual Average (KBVX) Record (KBVX)
Temperature  
Mean Temperature 48 °F -  
Max Temperature 56 °F 64 °F 84 °F (1987)
Min Temperature 39 °F 40 °F 17 °F (1991)
Degree Days  
Heating Degree Days 18    
Moisture  
Dew Point 38 °F    
Average Humidity 73    
Maximum Humidity 89    
Minimum Humidity 47    
Precipitation  
Precipitation 0.00 in - - ()
Sea Level Pressure  
Sea Level Pressure 30.19 in    
Wind  
Wind Speed 6 mph (NE)    
Max Wind Speed 13 mph    
Max Gust Speed -    
Visibility 9 miles    
Events Rain    
Averages and records for this station are not official NWS values.
T = Trace of Precipitation, MM = Missing Value Source: NWS Daily Summary

Daily Weather History Graph

Daily Weather History Graph

Search for Another Location

Airport or City:

Astronomy

Nov. 04, 2012 Rise Set
Actual Time 6:30 AM CST 5:06 PM CST
Civil Twilight 6:03 AM CST 5:32 PM CST
Nautical Twilight 5:33 AM CST 6:02 PM CST
Astronomical Twilight 5:03 AM CST 6:32 PM CST
Moon 9:46 PM CST (11/4) 11:11 AM CST (11/4)
Length of Visible Light 11h 29m
Length of Day
10h 35m
Waning Gibbous, 72% of the Moon is Illuminated
Nov 4
Waning Gibbous
Nov 6
Last Quarter
Nov 13
New
Nov 20
First Quarter
Nov 28
Full

Hourly Weather History & Observations

Time (CST) Temp. Windchill Dew Point Humidity Pressure Visibility Wind Dir Wind Speed Gust Speed Precip Events Conditions
12:56 AM 45.9 °F 42.9 °F 39.9 °F 80% 30.17 in 10.0 mi ENE 5.8 mph - N/A   Clear
1:56 AM 45.9 °F 41.7 °F 39.9 °F 80% 30.16 in 10.0 mi NE 8.1 mph - N/A   Clear
1:56 AM 43.9 °F 41.3 °F 38.8 °F 82% 30.18 in 10.0 mi NNE 4.6 mph - N/A   Clear
2:56 AM 41.9 °F 38.2 °F 38.8 °F 89% 30.18 in 10.0 mi North 5.8 mph - N/A   Clear
3:56 AM 41.0 °F 35.2 °F 37.9 °F 89% 30.19 in 10.0 mi NNW 9.2 mph - N/A   Clear
4:56 AM 41.0 °F 35.8 °F 37.9 °F 89% 30.20 in 10.0 mi North 8.1 mph - N/A   Clear
5:56 AM 39.9 °F 35.8 °F 36.9 °F 89% 30.20 in 10.0 mi North 5.8 mph - N/A   Clear
6:56 AM 41.0 °F 34.7 °F 37.9 °F 89% 30.22 in 8.0 mi North 10.4 mph - N/A   Clear
7:56 AM 43.9 °F 37.5 °F 38.8 °F 82% 30.24 in 9.0 mi NNE 12.7 mph - N/A   Clear
8:56 AM 45.9 °F 41.2 °F 39.9 °F 80% 30.24 in 10.0 mi NNE 9.2 mph - N/A   Clear
9:56 AM 48.9 °F - 39.9 °F 71% 30.25 in 10.0 mi NNE 10.4 mph - N/A   Clear
10:56 AM 50.9 °F - 39.9 °F 66% 30.25 in 10.0 mi Variable 3.5 mph - N/A   Clear
11:56 AM 54.0 °F - 38.8 °F 57% 30.22 in 10.0 mi NE 8.1 mph - N/A   Clear
12:56 PM 55.9 °F - 36.0 °F 47% 30.20 in 10.0 mi Variable 5.8 mph - N/A   Clear
1:56 PM 55.9 °F - 36.0 °F 47% 30.18 in 10.0 mi NNE 5.8 mph - N/A   Clear
2:56 PM 56.8 °F - 36.9 °F 47% 30.17 in 10.0 mi NE 9.2 mph - N/A   Clear
3:56 PM 55.9 °F - 36.9 °F 49% 30.16 in 10.0 mi NE 6.9 mph - N/A   Clear
4:56 PM 52.0 °F - 38.8 °F 61% 30.16 in 10.0 mi NE 5.8 mph - N/A   Clear
5:56 PM 46.9 °F - 38.8 °F 73% 30.17 in 10.0 mi East 5.8 mph - N/A   Clear
6:56 PM 46.9 °F - 37.9 °F 71% 30.17 in 10.0 mi South 5.8 mph - N/A   Clear
7:56 PM 43.9 °F 39.9 °F 36.9 °F 76% 30.17 in 10.0 mi South 6.9 mph - N/A   Clear
8:24 PM 44.6 °F 43.1 °F 37.4 °F 76% 30.17 in 2.5 mi SE 3.5 mph - 0.00 in Rain Light Rain
8:32 PM 44.6 °F 43.1 °F 37.4 °F 76% 30.18 in 10.0 mi SSE 3.5 mph - 0.00 in Rain Light Rain
8:56 PM 45.9 °F - 36.9 °F 71% 30.18 in 8.0 mi Calm Calm - 0.00 in   Clear
9:04 PM 46.4 °F - 37.4 °F 71% 30.17 in 1.8 mi Calm Calm - 0.00 in Rain Light Rain
9:10 PM 46.4 °F - 37.4 °F 71% 30.17 in 3.0 mi Calm Calm - 0.00 in Rain Light Rain
9:33 PM 44.6 °F - 35.6 °F 71% 30.17 in 2.5 mi Calm Calm - 0.00 in   Haze
9:40 PM 44.6 °F - 35.6 °F 71% 30.17 in 6.0 mi Calm Calm - 0.00 in   Haze
9:56 PM 43.9 °F - 36.9 °F 76% 30.17 in 10.0 mi Calm Calm - 0.00 in   Clear
10:56 PM 41.9 °F - 36.0 °F 79% 30.16 in 10.0 mi Calm Calm - N/A   Clear